<?xml version="1.0" encoding="UTF-8" standalone="no" ?>
<gpx xmlns="http://www.topografix.com/GPX/1/1" xmlns:xsi="http://www.w3.org/2001/XMLSchema-instance" xsi:schemaLocation="http://www.topografix.com/GPX/1/1 http://www.topografix.com/GPX/1/1/gpx.xsd" version="1.1" creator="VisuGPX - https://www.visugpx.com">
  <metadata>
    <name>Etel_Plouhinec_12-19km</name>
    <desc><![CDATA[gnerando idor: 6224151_6224295_6533546]]></desc>
  </metadata>
  <trk>
    <name><![CDATA[Etel_PlouhinecB3_11.8km-6224151]]></name>
    <extensions>
      <line xmlns="http://www.topografix.com/GPX/gpx_style/0/2">
        <color>0000FF</color>
        <width>4</width>
      </line>
    </extensions>
    <trkseg>
      <trkpt lat="47.68477" lon="-3.21232">
        <ele>4</ele>
        <time>2023-11-01T17:09:39Z</time>
      </trkpt>
      <trkpt lat="47.68454" lon="-3.21378">
        <ele>7</ele>
        <time>2023-11-01T17:11:54Z</time>
      </trkpt>
      <trkpt lat="47.68417" lon="-3.21408">
        <ele>9</ele>
        <time>2023-11-01T17:12:50Z</time>
      </trkpt>
      <trkpt lat="47.68425" lon="-3.21468">
        <ele>10</ele>
        <time>2023-11-01T17:13:45Z</time>
      </trkpt>
      <trkpt lat="47.68423" lon="-3.21519">
        <ele>11</ele>
        <time>2023-11-01T17:14:31Z</time>
      </trkpt>
      <trkpt lat="47.68382" lon="-3.21519">
        <ele>11</ele>
        <time>2023-11-01T17:15:26Z</time>
      </trkpt>
      <trkpt lat="47.68388" lon="-3.22099">
        <ele>11</ele>
        <time>2023-11-01T17:24:07Z</time>
      </trkpt>
      <trkpt lat="47.68446" lon="-3.22382">
        <ele>14</ele>
        <time>2023-11-01T17:28:32Z</time>
      </trkpt>
      <trkpt lat="47.68189" lon="-3.22455">
        <ele>16</ele>
        <time>2023-11-01T17:34:22Z</time>
      </trkpt>
      <trkpt lat="47.68171" lon="-3.22596">
        <ele>18</ele>
        <time>2023-11-01T17:36:31Z</time>
      </trkpt>
      <trkpt lat="47.68047" lon="-3.22704">
        <ele>17</ele>
        <time>2023-11-01T17:39:42Z</time>
      </trkpt>
      <trkpt lat="47.67851" lon="-3.22798">
        <ele>14</ele>
        <time>2023-11-01T17:44:17Z</time>
      </trkpt>
      <trkpt lat="47.67851" lon="-3.22987">
        <ele>13</ele>
        <time>2023-11-01T17:47:07Z</time>
      </trkpt>
      <trkpt lat="47.67562" lon="-3.23163">
        <ele>18</ele>
        <time>2023-11-01T17:54:04Z</time>
      </trkpt>
      <trkpt lat="47.67538" lon="-3.2333">
        <ele>16</ele>
        <time>2023-11-01T17:56:37Z</time>
      </trkpt>
      <trkpt lat="47.67536" lon="-3.23626">
        <ele>13</ele>
        <time>2023-11-01T18:01:03Z</time>
      </trkpt>
      <trkpt lat="47.67429" lon="-3.23897">
        <ele>11</ele>
        <time>2023-11-01T18:05:46Z</time>
      </trkpt>
      <trkpt lat="47.67434" lon="-3.2433">
        <ele>12</ele>
        <time>2023-11-01T18:12:15Z</time>
      </trkpt>
      <trkpt lat="47.67163" lon="-3.24274">
        <ele>9</ele>
        <time>2023-11-01T18:18:20Z</time>
      </trkpt>
      <trkpt lat="47.67267" lon="-3.23631">
        <ele>11</ele>
        <time>2023-11-01T18:28:14Z</time>
      </trkpt>
      <trkpt lat="47.6731" lon="-3.22987">
        <ele>18</ele>
        <time>2023-11-01T18:37:56Z</time>
      </trkpt>
      <trkpt lat="47.67267" lon="-3.22506">
        <ele>17</ele>
        <time>2023-11-01T18:45:12Z</time>
      </trkpt>
      <trkpt lat="47.67154" lon="-3.22493">
        <ele>18</ele>
        <time>2023-11-01T18:47:43Z</time>
      </trkpt>
      <trkpt lat="47.67096" lon="-3.22116">
        <ele>16</ele>
        <time>2023-11-01T18:53:30Z</time>
      </trkpt>
      <trkpt lat="47.66842" lon="-3.22099">
        <ele>18</ele>
        <time>2023-11-01T18:59:10Z</time>
      </trkpt>
      <trkpt lat="47.66793" lon="-3.21674">
        <ele>2</ele>
        <time>2023-11-01T19:05:37Z</time>
      </trkpt>
      <trkpt lat="47.66862" lon="-3.21678">
        <ele>5</ele>
        <time>2023-11-01T19:07:09Z</time>
      </trkpt>
      <trkpt lat="47.6683" lon="-3.21571">
        <ele>3</ele>
        <time>2023-11-01T19:08:54Z</time>
      </trkpt>
      <trkpt lat="47.66859" lon="-3.21524">
        <ele>6</ele>
        <time>2023-11-01T19:09:52Z</time>
      </trkpt>
      <trkpt lat="47.66854" lon="-3.21412">
        <ele>1</ele>
        <time>2023-11-01T19:11:33Z</time>
      </trkpt>
      <trkpt lat="47.669" lon="-3.21382">
        <ele>2</ele>
        <time>2023-11-01T19:12:40Z</time>
      </trkpt>
      <trkpt lat="47.67102" lon="-3.21532">
        <ele>2</ele>
        <time>2023-11-01T19:17:41Z</time>
      </trkpt>
      <trkpt lat="47.6716" lon="-3.21682">
        <ele>5</ele>
        <time>2023-11-01T19:20:16Z</time>
      </trkpt>
      <trkpt lat="47.67284" lon="-3.21597">
        <ele>4</ele>
        <time>2023-11-01T19:23:19Z</time>
      </trkpt>
      <trkpt lat="47.67327" lon="-3.21708">
        <ele>5</ele>
        <time>2023-11-01T19:25:14Z</time>
      </trkpt>
      <trkpt lat="47.67455" lon="-3.21742">
        <ele>7</ele>
        <time>2023-11-01T19:28:07Z</time>
      </trkpt>
      <trkpt lat="47.67432" lon="-3.21506">
        <ele>7</ele>
        <time>2023-11-01T19:31:42Z</time>
      </trkpt>
      <trkpt lat="47.67261" lon="-3.21378">
        <ele>9</ele>
        <time>2023-11-01T19:35:57Z</time>
      </trkpt>
      <trkpt lat="47.67148" lon="-3.20949">
        <ele>4</ele>
        <time>2023-11-01T19:42:51Z</time>
      </trkpt>
      <trkpt lat="47.67221" lon="-3.20863">
        <ele>5</ele>
        <time>2023-11-01T19:44:55Z</time>
      </trkpt>
      <trkpt lat="47.67171" lon="-3.20743">
        <ele>4</ele>
        <time>2023-11-01T19:47:02Z</time>
      </trkpt>
      <trkpt lat="47.6716" lon="-3.20597">
        <ele>3</ele>
        <time>2023-11-01T19:49:14Z</time>
      </trkpt>
      <trkpt lat="47.67235" lon="-3.20524">
        <ele>1</ele>
        <time>2023-11-01T19:51:14Z</time>
      </trkpt>
      <trkpt lat="47.67299" lon="-3.20652">
        <ele>6</ele>
        <time>2023-11-01T19:53:37Z</time>
      </trkpt>
      <trkpt lat="47.67377" lon="-3.20708">
        <ele>4</ele>
        <time>2023-11-01T19:55:33Z</time>
      </trkpt>
      <trkpt lat="47.67432" lon="-3.20828">
        <ele>8</ele>
        <time>2023-11-01T19:57:43Z</time>
      </trkpt>
      <trkpt lat="47.67599" lon="-3.20884">
        <ele>4</ele>
        <time>2023-11-01T20:01:32Z</time>
      </trkpt>
      <trkpt lat="47.67692" lon="-3.20785">
        <ele>4</ele>
        <time>2023-11-01T20:04:04Z</time>
      </trkpt>
      <trkpt lat="47.67663" lon="-3.20601">
        <ele>4</ele>
        <time>2023-11-01T20:06:54Z</time>
      </trkpt>
      <trkpt lat="47.67683" lon="-3.20378">
        <ele>2</ele>
        <time>2023-11-01T20:10:16Z</time>
      </trkpt>
      <trkpt lat="47.67599" lon="-3.20369">
        <ele>1.8</ele>
        <time>2023-11-01T20:12:09Z</time>
      </trkpt>
      <trkpt lat="47.67544" lon="-3.20167">
        <ele>1</ele>
        <time>2023-11-01T20:15:24Z</time>
      </trkpt>
      <trkpt lat="47.67614" lon="-3.20129">
        <ele>4.2</ele>
        <time>2023-11-01T20:17:04Z</time>
      </trkpt>
      <trkpt lat="47.67689" lon="-3.2024">
        <ele>3.4</ele>
        <time>2023-11-01T20:19:25Z</time>
      </trkpt>
      <trkpt lat="47.67761" lon="-3.20292">
        <ele>4</ele>
        <time>2023-11-01T20:21:12Z</time>
      </trkpt>
      <trkpt lat="47.67836" lon="-3.2021">
        <ele>3</ele>
        <time>2023-11-01T20:23:16Z</time>
      </trkpt>
      <trkpt lat="47.67969" lon="-3.20198">
        <ele>3</ele>
        <time>2023-11-01T20:26:14Z</time>
      </trkpt>
      <trkpt lat="47.68105" lon="-3.20013">
        <ele>3.34</ele>
        <time>2023-11-01T20:30:20Z</time>
      </trkpt>
      <trkpt lat="47.68238" lon="-3.20052">
        <ele>3</ele>
        <time>2023-11-01T20:33:21Z</time>
      </trkpt>
      <trkpt lat="47.68301" lon="-3.20022">
        <ele>3</ele>
        <time>2023-11-01T20:34:49Z</time>
      </trkpt>
      <trkpt lat="47.68307" lon="-3.19837">
        <ele>2</ele>
        <time>2023-11-01T20:37:36Z</time>
      </trkpt>
      <trkpt lat="47.68385" lon="-3.19927">
        <ele>2</ele>
        <time>2023-11-01T20:39:48Z</time>
      </trkpt>
      <trkpt lat="47.68365" lon="-3.20022">
        <ele>2</ele>
        <time>2023-11-01T20:41:17Z</time>
      </trkpt>
      <trkpt lat="47.68373" lon="-3.20142">
        <ele>3</ele>
        <time>2023-11-01T20:43:05Z</time>
      </trkpt>
      <trkpt lat="47.68394" lon="-3.20223">
        <ele>3</ele>
        <time>2023-11-01T20:44:23Z</time>
      </trkpt>
      <trkpt lat="47.68373" lon="-3.20296">
        <ele>5</ele>
        <time>2023-11-01T20:45:35Z</time>
      </trkpt>
      <trkpt lat="47.68402" lon="-3.20378">
        <ele>2</ele>
        <time>2023-11-01T20:46:58Z</time>
      </trkpt>
      <trkpt lat="47.68382" lon="-3.20472">
        <ele>4</ele>
        <time>2023-11-01T20:48:26Z</time>
      </trkpt>
      <trkpt lat="47.68451" lon="-3.20541">
        <ele>2</ele>
        <time>2023-11-01T20:50:17Z</time>
      </trkpt>
      <trkpt lat="47.68434" lon="-3.20678">
        <ele>5</ele>
        <time>2023-11-01T20:52:23Z</time>
      </trkpt>
      <trkpt lat="47.68365" lon="-3.20687">
        <ele>5</ele>
        <time>2023-11-01T20:53:55Z</time>
      </trkpt>
      <trkpt lat="47.68327" lon="-3.20644">
        <ele>6</ele>
        <time>2023-11-01T20:54:59Z</time>
      </trkpt>
      <trkpt lat="47.68388" lon="-3.20725">
        <ele>4</ele>
        <time>2023-11-01T20:56:48Z</time>
      </trkpt>
      <trkpt lat="47.68434" lon="-3.20768">
        <ele>2</ele>
        <time>2023-11-01T20:58:00Z</time>
      </trkpt>
      <trkpt lat="47.68434" lon="-3.20914">
        <ele>2</ele>
        <time>2023-11-01T21:00:12Z</time>
      </trkpt>
      <trkpt lat="47.68405" lon="-3.21009">
        <ele>1</ele>
        <time>2023-11-01T21:01:45Z</time>
      </trkpt>
      <trkpt lat="47.68365" lon="-3.20991">
        <ele>2</ele>
        <time>2023-11-01T21:02:41Z</time>
      </trkpt>
      <trkpt lat="47.68376" lon="-3.21094">
        <ele>2</ele>
        <time>2023-11-01T21:04:15Z</time>
      </trkpt>
      <trkpt lat="47.68475" lon="-3.2115">
        <ele>2</ele>
        <time>2023-11-01T21:06:36Z</time>
      </trkpt>
    </trkseg>
  </trk>
</gpx>